DW0465 Weather Reports


Display with metric or nautical units.
time (UTC)temp
F
wind
direction
speed
MPH
gust
MPH
rain 1hr
in
rain 24hr
in
rain mn
in
humidity
%
barometer
mb
20260509064512 52 36 0.0 0.0 0.00 0.02 0.00 70 1006.9
20260509063012 52 36 0.0 0.0 0.00 0.02 0.00 68 1006.7
20260509061516 52 36 0.0 0.0 0.00 0.02 0.00 68 1006.8
20260509060011 52 30 0.0 0.0 0.00 0.02 0.00 70 1006.8
20260509054507 52 30 0.0 0.0 0.00 0.05 0.02 69 1007.0
20260509053006 53 30 0.0 0.0 0.00 0.05 0.02 68 1007.0
20260509051505 54 30 0.0 0.0 0.00 0.05 0.02 66 1007.1
20260509050005 54 31 0.0 0.0 0.00 0.05 0.02 63 1007.2
20260509044504 55 348 0.0 0.0 0.00 0.11 0.02 59 1007.3
20260509043005 56 355 0.0 0.0 0.00 0.11 0.02 54 1007.5
20260509041503 57 37 0.0 2.0 0.00 0.11 0.02 49 1007.6
20260509040002 58 346 0.0 2.0 0.00 0.11 0.02 46 1007.6
20260509034502 59 344 0.0 2.0 0.00 0.14 0.02 46 1007.5
20260509033002 59 30 0.0 4.0 0.00 0.14 0.02 46 1007.4
20260509031502 60 346 0.0 2.0 0.00 0.14 0.02 47 1007.1
20260509024601 59 347 0.0 0.0 0.00 0.16 0.02 45 1006.5
20260509023100 60 126 0.0 0.0 0.00 0.16 0.02 52 1006.2
20260509021600 61 126 0.0 0.0 0.00 0.16 0.02 50 1006.2
20260509020100 62 126 0.0 0.0 0.00 0.16 0.02 43 1006.0
20260509014602 62 121 0.0 2.0 0.00 0.20 0.02 41 1005.9
20260509013103 63 157 0.0 1.0 0.00 0.20 0.02 41 1006.0
20260509011558 63 138 0.0 2.0 0.00 0.20 0.02 41 1006.0
20260509010058 63 132 0.0 2.0 0.00 0.20 0.02 41 1005.9
20260509004601 64 143 0.0 3.0 0.00 0.20 0.02 41 1005.9
20260509003056 65 153 0.0 0.0 0.00 0.20 0.02 39 1005.9
20260509001555 65 132 0.0 0.0 0.00 0.20 0.02 38 1006.1
20260509000052 65 178 0.0 1.0 0.00 0.20 0.02 38 1006.2
20260508234552 65 148 0.0 3.0 0.00 0.20 0.02 39 1006.4
20260508233057 66 140 0.0 2.0 0.00 0.20 0.02 37 1006.4
20260508231550 67 155 0.0 6.0 0.00 0.20 0.02 35 1006.5
20260508230056 67 134 0.0 2.0 0.00 0.20 0.02 36 1006.8
20260508224546 66 168 0.0 9.0 0.00 0.22 0.02 37 1007.2
20260508223042 66 128 0.0 5.0 0.00 0.22 0.02 37 1007.3
20260508221546 66 159 0.0 2.0 0.00 0.22 0.02 37 1007.6
20260508220037 65 205 0.0 2.0 0.00 0.22 0.02 38 1007.9
20260508214533 65 143 0.0 3.0 0.00 0.25 0.02 39 1008.1
20260508213030 64 143 0.0 1.0 0.00 0.25 0.02 38 1008.2
20260508211527 64 219 0.0 7.0 0.00 0.25 0.02 40 1008.5
20260508210025 63 217 0.0 7.0 0.00 0.25 0.02 42 1008.7
20260508204522 63 146 0.0 7.0 0.00 0.25 0.02 42 1008.8
20260508203018 62 215 0.0 2.0 0.00 0.25 0.02 43 1008.9
20260508201516 62 140 0.0 5.0 0.00 0.25 0.02 44 1009.2
20260508200013 62 124 0.0 6.0 0.00 0.25 0.02 44 1009.6
20260508194611 60 160 0.0 3.0 0.00 0.36 0.02 48 1009.7
20260508193009 60 71 0.0 3.0 0.00 0.36 0.02 46 1009.8
20260508191509 61 167 0.0 4.0 0.00 0.36 0.02 47 1009.9
20260508190005 61 110 0.0 3.0 0.00 0.36 0.02 47 1010.3
20260508184502 60 111 0.0 3.0 0.00 0.36 0.02 51 1010.6
20260508183103 60 118 0.0 7.0 0.00 0.36 0.02 48 1010.7
20260508181557 60 169 0.0 4.0 0.00 0.36 0.02 52 1011.0
20260508180053 59 132 0.0 2.0 0.00 0.36 0.02 42 1011.0
20260508174550 59 144 0.0 1.0 0.00 0.36 0.02 47 1011.2
20260508173047 59 144 0.0 3.0 0.00 0.36 0.02 46 1011.4
20260508171551 59 130 0.0 1.0 0.00 0.36 0.02 47 1011.4
20260508170040 58 157 0.0 4.0 0.00 0.36 0.02 51 1011.4
20260508164539 58 140 0.0 1.0 0.00 0.36 0.02 51 1011.6
20260508163035 58 111 0.0 3.0 0.00 0.36 0.02 49 1011.7
20260508161532 57 124 0.0 1.0 0.00 0.36 0.02 49 1011.7
20260508160032 56 173 0.0 1.0 0.00 0.36 0.02 53 1011.9
20260508154527 54 232 0.0 0.0 0.00 0.36 0.02 63 1011.9
20260508153019 53 207 0.0 0.0 0.00 0.36 0.02 67 1012.1
20260508151515 51 215 0.0 1.0 0.00 0.36 0.02 69 1012.2
20260508150011 50 207 0.0 4.0 0.00 0.36 0.02 71 1012.5
20260508144506 49 188 0.0 1.0 0.00 0.36 0.02 74 1012.6
20260508143001 47 189 0.0 2.0 0.00 0.36 0.02 76 1012.7
20260508141557 46 174 0.0 0.0 0.00 0.36 0.02 80 1012.8
20260508140052 44 212 0.0 0.0 0.00 0.36 0.02 82 1012.9
20260508134548 43 199 0.0 1.0 0.00 0.36 0.02 83 1012.8
20260508133043 41 196 0.0 2.0 0.00 0.36 0.02 85 1012.8
20260508131540 40 195 0.0 0.0 0.00 0.36 0.02 88 1012.6
20260508130053 38 198 0.0 0.0 0.01 0.36 0.02 89 1012.6
20260508124533 38 187 0.0 0.0 0.01 0.36 0.02 89 1012.4
20260508123031 38 178 0.0 0.0 0.01 0.36 0.02 90 1012.3
20260508121530 38 202 0.0 0.0 0.01 0.36 0.02 89 1012.2
20260508120027 38 192 0.0 0.0 0.00 0.35 0.01 89 1012.2
20260508114527 38 201 0.0 0.0 0.00 0.35 0.01 90 1012.3
20260508113027 38 200 0.0 0.0 0.00 0.35 0.01 90 1012.3
20260508111526 38 205 0.0 0.0 0.00 0.35 0.01 90 1012.3
20260508110025 38 198 0.0 0.0 0.00 0.35 0.01 90 1012.1
20260508104535 38 203 0.0 0.0 0.00 0.35 0.01 90 1012.1
20260508103033 38 178 0.0 1.0 0.00 0.35 0.01 90 1011.9
20260508101522 38 173 0.0 0.0 0.00 0.35 0.01 91 1011.9
20260508100020 38 208 0.0 0.0 0.00 0.35 0.01 91 1011.9
20260508094519 39 196 0.0 0.0 0.00 0.35 0.01 90 1011.8
20260508093018 39 199 0.0 0.0 0.00 0.35 0.01 91 1011.8
20260508091517 39 201 0.0 0.0 0.00 0.35 0.01 91 1011.8
20260508090017 39 201 0.0 0.0 0.00 0.35 0.01 90 1011.8
20260508084512 40 201 0.0 0.0 0.00 0.35 0.01 90 1011.8
20260508083011 40 215 0.0 0.0 0.00 0.35 0.01 90 1011.8
20260508081508 41 215 0.0 0.0 0.00 0.35 0.01 90 1011.9
20260508080007 41 202 0.0 0.0 0.00 0.35 0.01 90 1011.8
20260508074505 41 212 0.0 0.0 0.00 0.35 0.01 90 1012.0
20260508073003 42 180 0.0 0.0 0.00 0.35 0.01 90 1011.9
20260508071501 42 189 0.0 0.0 0.00 0.35 0.01 90 1012.0
20260508070143 43 198 0.0 0.0 0.01 0.35 0.01 90 1012.0